Wind_Speed
24 19 21 19 15 17 17 16 16 16 15 16 17 14 15 16 13 10 9 12 12 12 11 11 11 12 11 12 13 13 13 13 13
26 22 21 16 16 15 14 15 15 14 15 15 14 13 14 12 12 8 11 13 12 11 11 11 11 11 11 12 12 12 12 12 12
24 23 19 18 16 16 15 13 12 13 12 13 13 12 11 11 8 5 10 11 11 10 10 10 10 10 10 11 11 11 11 12 12
22 22 19 17 16 13 14 12 11 10 10 9 10 10 9 11 6 7 7 9 8 9 8 8 8 9 9 10 10 10 10 10 10
21 21 19 16 15 12 12 11 11 9 8 7 8 10 9 8 7 3 3 7 7 7 6 6 7 7 8 8 9 10 10 10 10
21 20 18 15 14 11 10 10 10 9 6 5 5 6 4 5 5 4 2 5 5 5 5 5 5 6 6 7 8 8 8 9 9
22 20 18 16 14 13 11 9 8 7 5 2 3 5 5 3 4 4 3 3 3 3 2 3 3 4 4 5 6 7 7 7 7
22 19 19 17 17 16 14 11 9 6 6 7 2 1 4 5 5 4 3 3 2 2 1 3 3 4 3 3 4 5 5 5 6
20 22 20 18 17 13 11 9 7 6 7 7 5 7 4 4 5 6 1 2 2 2 2 3 6 6 4 4 3 4 4 6 7
20 20 19 15 13 15 9 12 9 9 9 8 7 6 6 5 6 4 2 1 2 3 3 4 5 6 6 4 2 1 1 2 6
21 20 19 18 15 13 12 12 10 9 10 9 8 7 6 4 4 4 4 2 3 5 5 7 7 5 5 5 4 1 1 3 6
21 19 19 17 15 13 13 11 10 10 9 9 8 7 7 8 6 6 3 6 8 7 6 7 9 9 6 5 6 4 3 1 4
21 19 18 16 14 15 12 10 11 8 8 8 10 9 8 7 5 3 8 7 2 4 6 8 8 10 7 8 8 7 5 3 2
21 20 18 16 14 13 13 12 12 12 12 13 10 13 9 8 7 5 1 3 6 8 8 7 8 8 4 9 10 7 4 1 2
22 19 16 14 16 13 12 13 13 12 14 14 14 7 6 10 7 5 4 7 7 2 3 3 5 5 5 12 11 9 5 2 2
21 18 17 17 18 16 14 13 12 13 15 12 13 10 14 11 8 6 3 4 2 1 1 2 3 1 11 13 9 6 4 2 4
22 21 17 16 15 12 11 13 14 15 17 9 5 2 7 9 8 6 8 3 3 3 4 3 3 5 8 8 7 6 5 3 5
22 21 17 16 15 15 14 11 9 10 15 18 6 2 3 5 9 10 7 6 6 6 5 5 5 6 7 9 8 7 5 4 6
22 20 15 12 11 13 9 10 16 12 18 5 5 4 4 3 2 9 9 9 7 6 4 4 6 7 5 6 4 3 2 6 6
13 13 13 13 16 13 11 12 8 9 13 14 8 6 8 9 2 2 6 10 8 8 4 4 3 4 2 4 4 2 1 5 4
Wind_Direction
151 149 146 143 145 137 129 124 118 116 113 112 115 101 90 90 86 97 101 89 79 75 73 70 68 66 64 60 57 54 52 51 50
154 152 149 147 148 137 134 131 122 118 115 115 114 99 97 93 101 92 94 89 84 81 78 75 71 69 66 62 59 54 50 48 48
155 152 150 154 157 150 146 140 131 123 120 118 119 110 103 103 100 85 99 94 91 87 81 76 72 68 63 59 54 53 51 47 45
155 156 155 157 161 148 147 144 141 135 126 123 120 118 84 112 117 109 99 104 100 94 86 78 69 62 58 53 51 48 46 46 44
160 160 159 164 164 157 153 144 145 153 141 126 122 122 107 105 117 124 119 112 102 92 83 69 61 52 49 47 42 40 41 40 39
164 163 163 166 168 166 175 159 151 150 150 143 143 129 106 142 160 195 153 134 120 97 80 67 55 46 37 37 35 34 34 34 33
165 169 171 170 173 181 192 179 172 171 150 145 183 152 123 169 186 215 236 181 154 118 77 58 43 37 36 34 32 27 26 25 23
172 169 174 179 186 192 200 195 192 180 214 216 203 209 194 212 194 229 239 210 198 178 252 313 335 351 6 15 15 17 27 33 19
171 174 179 189 189 186 197 197 193 194 226 210 232 223 221 218 212 230 283 232 232 234 250 263 286 303 305 301 326 347 8 12 358
170 178 179 179 179 193 195 215 220 211 217 219 232 219 234 213 212 258 240 287 253 251 260 286 295 295 291 294 265 235 333 3 356
177 176 178 186 194 192 202 206 211 216 222 222 225 235 239 219 212 241 263 258 284 274 271 289 303 299 293 269 240 219 151 13 16
178 178 181 188 192 191 200 203 210 219 214 229 227 227 234 229 231 208 237 279 293 293 277 277 284 295 281 237 213 201 187 77 41
184 182 188 187 194 199 197 202 212 212 219 224 225 225 225 233 232 248 279 272 267 331 307 273 277 290 276 203 189 193 185 149 54
183 188 184 195 191 195 203 203 208 213 223 222 229 215 216 215 259 252 236 307 299 294 303 295 303 285 234 174 167 174 181 169 30
190 189 190 186 190 197 206 215 215 220 221 217 230 222 233 248 236 237 294 294 285 256 277 292 316 327 188 162 160 185 200 233 320
190 193 196 199 199 195 210 217 226 223 243 217 233 232 243 236 198 240 253 239 255 182 166 205 266 115 161 167 177 185 202 242 315
195 197 200 202 199 201 212 226 226 234 231 228 210 268 231 161 192 204 193 171 203 234 173 176 198 205 199 208 213 218 225 278 317
202 202 202 202 202 212 220 240 260 258 239 236 212 209 201 139 174 185 196 203 217 230 208 202 184 222 238 223 212 225 247 296 316
207 210 207 208 211 219 220 231 248 259 265 249 183 143 117 123 169 173 206 221 212 207 214 221 207 220 239 236 240 246 290 343 328
219 223 228 217 228 229 235 229 224 289 262 214 185 175 194 192 95 230 211 204 213 204 185 178 263 256 246 235 266 260 302 24 59
Height
815 819 821 823 824 826 826 829 830 831 834 836 837 838 838 838 839 839 839 840 841 841 841 841 840 840 839 839 838 837 837 836 836
814 819 823 826 827 828 829 830 832 833 834 837 839 840 840 841 841 840 841 842 843 843 842 842 842 841 841 840 840 839 839 838 838
816 820 824 827 829 830 831 832 834 835 837 838 839 841 842 843 843 843 843 843 843 844 843 843 843 843 843 842 842 841 840 840 840
819 822 826 828 830 832 833 834 835 837 838 839 840 841 843 844 844 843 844 844 844 844 844 844 845 845 844 844 843 843 843 842 841
821 823 826 829 831 833 834 835 836 838 839 841 842 843 843 845 845 845 845 845 845 845 846 846 846 846 846 846 846 845 844 843 843
821 825 827 829 832 834 835 836 836 837 839 841 843 843 844 845 845 845 845 845 845 846 846 846 847 847 847 847 847 846 845 844 844
820 824 827 830 832 834 835 836 837 838 839 840 842 843 843 845 845 845 846 846 846 846 846 846 847 846 847 846 847 846 845 846 845
818 822 825 828 830 832 834 835 837 838 839 840 841 842 844 845 845 846 846 846 847 846 846 846 847 847 846 845 845 845 845 844 844
816 820 824 826 829 831 833 835 836 836 839 841 841 842 844 844 844 845 846 846 847 846 846 846 846 846 846 846 845 845 845 845 844
814 817 821 824 827 829 831 833 835 837 838 839 841 842 843 844 845 845 846 846 846 845 845 844 844 845 845 845 844 845 845 844 844
813 816 819 823 825 828 830 832 834 835 836 838 839 840 842 843 844 844 844 845 844 844 843 843 842 842 842 843 843 844 844 846 845
812 815 818 821 824 825 828 830 833 834 835 837 838 839 840 841 841 842 843 843 843 842 841 841 841 841 841 841 842 842 842 843 844
811 813 816 819 822 824 825 828 830 831 833 835 836 837 838 839 839 840 841 840 841 840 840 839 839 838 837 839 840 842 841 840 842
807 811 813 816 819 823 824 825 827 830 831 831 832 833 835 837 838 838 839 838 839 839 838 839 838 836 836 837 840 841 842 841 840
804 808 811 814 817 820 822 824 825 826 829 829 830 830 832 834 835 835 836 836 837 837 836 837 837 836 837 836 836 836 837 839 838
802 805 809 812 814 816 819 821 823 824 827 827 827 828 829 831 832 833 835 836 836 837 835 835 835 835 835 837 837 837 837 836 837
799 803 806 808 811 814 816 819 820 821 824 825 826 828 827 827 828 831 833 835 836 837 836 835 835 835 835 836 836 837 837 836 836
797 800 803 805 808 811 813 816 819 818 821 823 824 826 826 824 827 828 831 832 834 834 835 837 837 837 837 835 833 834 835 834 834
794 796 799 802 806 810 809 813 815 817 819 821 821 822 821 824 828 826 827 829 831 833 833 834 835 835 836 837 836 836 836 835 834
793 795 798 799 806 804 804 806 806 810 818 818 817 818 819 819 823 825 823 827 829 831 833 833 834 833 833 835 835 835 836 835 833